Overview Statistics Trail Chart Weather Telemetry Raw packets
 

This is the latest recevied weather packets stored in our database for station/object NI4CE-11. If no packets are shown the sender has not sent any weather packets the latest 10 day(s).

<< 143 144 145 146 147 148 149 >>
Time Temp. Humidity Pressure Rain* Wind** Luminosity Snow
1787793355 25.56° C 100% 1017.5 hPa 0 mm - - -
1787793264 25.56° C 100% 1017.5 hPa 0 mm - - -
1787792964 26.11° C 100% 1017.5 hPa 0 mm - - -
1787792664 25.56° C 100% 1017.6 hPa 0 mm - - -
1787792364 25.56° C 100% 1017.5 hPa 0 mm - - -
1787792067 26.11° C 100% 1017.4 hPa 0 mm - - -
1787791764 26.11° C 100% 1017.2 hPa 0 mm - - -
1787791579 26.11° C 100% 1017.1 hPa 0 mm - - -
1787791464 26.11° C 100% 1017.1 hPa 0 mm - - -
1787791443 26.67° C 100% 1016.8 hPa 0 mm - - -
1787791258 26.67° C 100% 1016.8 hPa 0 mm - - -
1787791164 26.67° C 100% 1016.8 hPa 0 mm - - -
1787790976 28.33° C 100% 1016.6 hPa 0 mm - - -
1787790864 28.33° C 100% 1016.6 hPa 0 mm - - -
1787790674 28.33° C 100% 1016.6 hPa 0 mm - - -
1787790564 28.33° C 100% 1016.6 hPa 0 mm - - -
1787790361 28.33° C 100% 1016.7 hPa 0 mm - - -
1787790264 28.33° C 100% 1016.7 hPa 0 mm - - -
1787789964 27.78° C 100% 1016.6 hPa 0 mm - - -
1787789749 27.78° C 100% 1016.5 hPa 0 mm - - -
1787789664 27.78° C 100% 1016.5 hPa 0 mm - - -
1787789364 27.78° C 100% 1016.4 hPa 0 mm - - -
1787789064 27.22° C 100% 1016.4 hPa 0 mm - - -
1787788898 27.22° C 100% 1016.1 hPa 0 mm - - -
1787788764 27.22° C 100% 1016.1 hPa 0 mm - - -

* Rain latest hour (hover to see other rain measurements)
** Current wind speed in m/s (hover to see current wind gust speed)